ONEWEB-0247 (48777 NORAD) Tracking and Keplerian Element Data

This shows tracking and keplerian element data for the satellite.

Feedback or suggestion? Click here.




ElementValue
Catalog48777
NameONEWEB-0247
Epoch Orbit190
Epoch Day170.58334491
Epoch Year2021
RAAN268.8615
Inclination87.4066
Eccentricity0.0007142
Argument of Perigee160.5624
Mean Anonmoly324.0532
Mean Motion15.33910417
Decay Rate-0.00955269
L11 48777U 21045L 21170.58334491 -.00955269 00000-0 -31907-1 0 9992
L22 48777 87.4066 268.8615 0007142 160.5624 324.0532 15.33910417 1903

Live tracking and technical data element details for ONEWEB-0247 (NORAD 48777). ONEWEB-0247 can be tracked NOW for your location showing map with azimuth and elevation plus other details from your city location.

Track the satellite on the map from your city or location and see movement details for azimuth, elevation, latitude, longitude, range, height, and movement on the map or in text.







IsCatalogInMostPopularTable: catalog: 48777, numindb: 6
Update: records affected: 1



GetName: 48777 ONEWEB-0247

Hit Count: updated at: Mon, 21 Jun 2021 04:02:45 GMT